星链-33899 (STARLINK-33899)

导读

STARLINK-33899是美国于2025年5月2日发射的Starlink星链卫星,属于SpaceX打造的低轨卫星互联网星座一员。该卫星承担着为全球偏远地区、海洋上空等传统网络覆盖盲区提供高速宽带互联网接入服务的任务,助力SpaceX持续完善全球卫星互联网通信布局。

Basic Information
目录编号:
63799
目录名称:
STARLINK-33899
国际标识:
2025-091AA
轨道中心:
EARTH
卫星名称:
星链-33899
卫星全名:
星链-33899 (STARLINK-33899)
卫星状态:
在轨 (已飞行490 天)
发射日期:
2025-05-02 UTC
国别 :
美国 (US)
星等 :
--
Orbit Information
数据来源 国际轨道数据
星历时间: 2026-09-04T09:38:19+0800
18小时前
查看轨道信息
半长轴: 6861.171km
偏心率: 0.0002023
轨道倾角: 43.001°
近地点辐角 279.127°
升交点赤经 125.071°
平近点角 80.935°
近地点: 481.645km
远地点: 484.423km
周期: 94.266分钟
每日圈数: 15.275853
Detailed Information
固有亮度:
5
最大亮度:
2.5
卫星平台:
Starlink V1.0
覆盖范围:
全球
运营商:
太空探索技术公司
运营商所在国:
美国
制造商(研发单位):
太空探索技术公司
制造商所在国:
美国
使用方式:
暂无
Satellite Introduction
Starlink 计划是 SpaceX 推出的全球卫星互联网项目,通过发射低轨道卫星,为全球尤其是偏远地区提供高速、低延迟的互联网服务。自 2019 年起,Starlink 已部署数千颗卫星,旨在缩小全球数字鸿沟,推动互联网普及。该项目还为军事、航空等行业提供通信支持,带来广泛经济效益。
2D Orbit Map
3D Orbit Map
Orbit Altitude Analysis Chart
Orbit Inclination Analysis Chart
Orbit Comprehensive Analysis Chart
View Comprehensive Chart
Conjunction Data List
Event ID Objects TCA Miss Dist (km) Collision Risk Probability Collision Risk Index (CRI) Action
CDM_260907-025805-967006-379921
2026-09-07T
02:58:38+0000
1.072 km
极远距离
4.340712E-6 低风险 0.48
CDM_260905-021104-701506-379921
2026-09-05T
02:11:05+0000
1.812 km
极远距离
3.590855E-6 低风险 0.46
CDM_260907-021105-967006-379921
2026-09-07T
02:11:33+0000
1.393 km
极远距离
1.864809E-6 低风险 0.4
CDM_260907-012405-967006-379921
2026-09-07T
01:24:29+0000
1.484 km
极远距离
1.542253E-6 低风险 0.39
CDM_260903-024905-321406-379921
2026-09-03T
02:49:12+0000
2.860 km
极远距离
1.395189E-6 低风险 0.38